Погода в Чайковской

Россия / Пермский край     58°07′55″N   55°31′55″E
темп.,
°C
ветер,
м/с
пор.,
м/с
влажн.,
%
обл.,
%
осадки,
мм/ч
давл.,
гПа
погр.,
м
11 апреля, вс
вс1123:00+3вюв28100100 2.1 1028182
02:00+2ю26100100 0.4 1027145
05:00+2ююз2999100 6.7 1027235
08:00+2ююв12100100 4.9 102739
11:00+4ю2999100 6.1 1027293
14:00+4юз28100100 0.8 1028333
17:00+3зюз25100100 8.3 1030176
20:00+3з2699100 0.0 1032216
12 апреля, пн
пн1223:000з11100100 0.0 103312
02:000з1399100 0.0 103484
05:000з1299100 0.0 103770
08:00+1сз1496100 0.0 1038124
11:00+6с247974 0.0 1039515
14:00+9ссз22510 0.0 1039847
17:00+9с22491 0.0 1040879
20:00+4с11834 0.0 104010
13 апреля, вт
вт1323:00+1всв11885 0.0 104110
02:000вюв11925 0.0 104010
05:00−1вюв11935 0.0 104010
08:00+2юв13795 0.0 103990
11:00+8ююв236099 0.0 1038343
14:00+11ю24505 0.0 1036612
17:00+13ююз3551100 0.0 1034740
20:00+9ю227490 0.0 103231
14 апреля, ср
ср1423:00+7юз2990100 0.0 1032173
02:00+6юз2993100 0.0 1031168
05:00+6юз2394100 0.0 103055
08:00+7юз2793100 0.0 1030171
11:00+12юз3672100 0.0 1029445
14:00+15юз4649100 0.0 10271068
17:00+16юз464458 0.0 10261222
20:00+11зюз226416 0.0 102533
15 апреля, чт
чт1523:00+8юз247533 0.0 102474
02:00+6юз268252 0.0 102486
05:00+5юз258775 0.0 102374
08:00+7юз28829 0.0 1022213
11:00+13юз46585 0.0 1021504
14:00+16зюз464296 0.0 10191285
17:00+17зюз463781 0.0 10171499
20:00+12зюз225283 0.0 101617